Kosmos-2139

operational
NORAD ID: 21216 Int'l Des: 1991-025 Owner: UNKSR Country: SU Constellation: GLONASS
MEOCIRCULAR

Kosmos-2139について

説明を読み込み中...

リアルタイム位置

3D地球を読み込み中...

次回通過

高度履歴

Altitude vs Time

uPlot chart will show altitude changes over time

軌道要素

1 21216U 91025A 26061.43335984 -.00000028 00000-0 00000-0 0 9994
2 21216 64.4318 308.1535 0015323 223.1212 136.8242 2.13105848271651
Epoch: Mar 2, 2026 • Age: 50 hours

現在のステータス

高度 19105.3 km
速度 3.96 km/s
衛星直下点 7.97°N, 60.77°W
打ち上げ日 Apr 4, 1991
運用期間 34.9 years
タイプ other

技術仕様

分類 Payload
質量 1300.00 kg
乾燥質量 1200.00 kg
総質量 1300.00 kg
長さ 4.00 m
直径 1.50 m
スパン 7.80 m
形状 Cyl + Ant + 2 Pan
製造者 POL
バスタイプ Uragan
フェーズステータス In Orbit
所有者/国 UNKSR/SU

大規模コンステレーション

Loading constellations...